Powrót do katalogu

HAI YANG 2-05

AktywnyPogodaSSO
NORAD 69737·PAYLOAD·🇨🇳 China
Ta nazwa satelity nie została jeszcze potwierdzona przez oficjalne źródła.

Wystrzelony Jul 1, 2026 z Jiuquan Satellite Launch Center

Loading…

Następne Przeloty (najbliższe 24 godziny)

TLE

ŚwieżeSource: CelesTrak SupGP

Epoka: Sep 14, 2026, 00:00 UTC

1 69737C 26149A   26257.00000000 -.00000051  00000+0 -49469-4 0  2576
2 69737  99.3472 263.1096 0000468  70.5643 193.9332 13.79299964    18

Śledź HAI YANG 2-05 w czasie rzeczywistym z AllMySat

Download on the App Store